CW3330 Weather Reports


time (UTC)temp
C
wind
direction
speed
KPH
gust
KPH
rain 1hr
cm
rain 24hr
cm
rain mn
cm
humidity
%
barometer
mb
20260510092953 15 300 6.4 14.5 0.00 0.00 0.00 66 1013.6
20260510091521 15 318 6.4 12.9 0.00 0.00 0.00 65 1013.7
20260510090508 15 296 4.8 12.9 0.00 0.00 0.00 66 1013.7
20260510085506 15 325 3.2 6.4 0.00 0.00 0.00 63 1013.7
20260510084512 15 326 1.6 14.5 0.00 0.00 0.00 62 1013.7
20260510083522 15 306 6.4 12.9 0.00 0.00 0.00 64 1013.7
20260510082956 15 317 1.6 14.5 0.00 0.00 0.00 61 1013.9
20260510081512 15 311 4.8 11.3 0.00 0.00 0.00 63 1014.0
20260510080522 15 273 3.2 11.3 0.00 0.00 0.00 61 1014.1
20260510080021 15 258 3.2 8.0 0.00 0.00 0.00 62 1014.1
20260510075023 14 257 4.8 8.0 0.00 0.00 0.00 58 1014.2
20260510073509 14 221 1.6 8.0 0.00 0.00 0.00 64 1014.3
20260510073049 13 205 3.2 6.4 0.00 0.00 0.00 67 1014.4
20260510071521 13 205 3.2 6.4 0.00 0.00 0.00 69 1014.4
20260510070949 13 204 1.6 6.4 0.00 0.00 0.00 70 1014.6
20260510065506 13 202 0.0 3.2 0.00 0.00 0.00 66 1014.5
20260510064521 13 201 1.6 6.4 0.00 0.00 0.00 73 1014.3
20260510063508 12 201 1.6 4.8 0.00 0.00 0.00 74 1014.2
20260510062512 12 201 0.0 3.2 0.00 0.00 0.00 75 1014.2
20260510061506 12 196 0.0 0.0 0.00 0.00 0.00 77 1014.4
20260510060507 12 196 0.0 0.0 0.00 0.00 0.00 70 1014.5
20260510055954 12 196 0.0 0.0 0.00 0.00 0.00 76 1014.5
20260510054508 11 196 0.0 0.0 0.00 0.00 0.00 78 1014.4
20260510053507 11 196 0.0 0.0 0.00 0.00 0.00 79 1014.5
20260510052945 11 196 0.0 0.0 0.00 0.00 0.00 79 1014.5
20260510051956 11 196 0.0 0.0 0.00 0.00 0.00 80 1014.5
20260510045506 10 196 0.0 0.0 0.00 0.00 0.00 82 1014.6
20260510044506 10 196 0.0 0.0 0.00 0.00 0.00 83 1014.5
20260510043512 10 196 0.0 0.0 0.00 0.00 0.00 83 1014.7
20260510042506 10 196 0.0 0.0 0.00 0.00 0.00 84 1014.7
20260510041507 10 196 0.0 0.0 0.00 0.00 0.00 83 1014.9
20260510040950 10 196 0.0 0.0 0.00 0.00 0.00 83 1014.9
20260510035512 10 196 0.0 0.0 0.00 0.00 0.00 83 1015.1
20260510034508 10 196 0.0 0.0 0.00 0.00 0.00 82 1015.1
20260510033508 10 196 0.0 0.0 0.00 0.00 0.00 82 1015.1
20260510032505 10 196 0.0 0.0 0.00 0.00 0.00 82 1015.2
20260510031512 10 196 0.0 0.0 0.00 0.00 0.00 81 1015.4
20260510030519 10 196 0.0 0.0 0.00 0.00 0.00 81 1015.4
20260510025507 10 196 0.0 0.0 0.00 0.00 0.00 80 1015.4
20260510024512 10 196 0.0 0.0 0.00 0.00 0.00 80 1015.5
20260510023508 11 196 0.0 0.0 0.00 0.00 0.00 79 1015.6
20260510022506 11 196 0.0 0.0 0.00 0.00 0.00 78 1015.7
20260510021506 11 196 0.0 0.0 0.00 0.00 0.00 77 1015.6
20260510020507 11 196 0.0 0.0 0.00 0.00 0.00 76 1015.8
20260510015512 11 196 0.0 0.0 0.00 0.00 0.00 76 1015.8
20260510014952 11 196 0.0 0.0 0.00 0.00 0.00 76 1015.8
20260510013506 11 196 0.0 0.0 0.00 0.00 0.00 75 1016.0
20260510011505 11 196 0.0 0.0 0.00 0.00 0.00 75 1015.9
20260510010507 11 196 0.0 0.0 0.00 0.00 0.00 74 1015.9
20260510005513 11 196 0.0 0.0 0.00 0.00 0.00 74 1015.9
20260510004505 11 196 0.0 4.8 0.00 0.00 0.00 74 1016.0
20260510003512 11 196 3.2 4.8 0.00 0.00 0.00 73 1016.2
20260510002940 12 198 4.8 6.4 0.00 0.00 0.00 73 1016.5
20260510001506 12 200 1.6 6.4 0.00 0.00 0.00 73 1016.7
20260510000512 12 200 3.2 6.4 0.00 0.00 0.00 72 1016.8
20260509235506 12 198 1.6 6.4 0.00 0.00 0.00 72 1016.9
20260509234505 12 198 4.8 6.4 0.00 0.00 0.00 72 1016.9
20260509233532 12 158 1.6 12.9 0.00 0.00 0.00 72 1016.7
20260509232505 12 194 1.6 8.0 0.00 0.00 0.00 72 1017.0
20260509231512 12 189 0.0 4.8 0.00 0.00 0.00 72 1017.2
20260509224952 12 149 1.6 3.2 0.00 0.00 0.00 72 1017.6
20260509223946 12 150 1.6 3.2 0.00 0.00 0.00 72 1017.7
20260509222508 12 150 1.6 6.4 0.00 0.00 0.00 72 1017.7
20260509221512 12 188 4.8 8.0 0.00 0.00 0.00 72 1018.0
20260509220506 12 117 1.6 4.8 0.00 0.00 0.00 72 1018.0
20260509215506 12 191 1.6 6.4 0.00 0.00 0.00 72 1018.0
20260509214514 12 179 0.0 4.8 0.00 0.00 0.00 72 1018.1
20260509213510 12 80 0.0 4.8 0.00 0.00 0.00 72 1018.2
20260509212506 12 77 1.6 6.4 0.00 0.00 0.00 72 1018.2
20260509211522 12 78 3.2 8.0 0.00 0.00 0.00 72 1018.4
20260509205945 12 76 3.2 11.3 0.00 0.00 0.00 72 1018.4
20260509204945 12 124 1.6 6.4 0.00 0.00 0.00 72 1018.4
20260509202517 13 147 0.0 1.6 0.00 0.00 0.00 72 1018.3
20260509201936 13 142 0.0 4.8 0.00 0.00 0.00 71 1018.4
20260509200507 13 139 0.0 6.4 0.00 0.00 0.00 70 1018.3
20260509195507 13 179 0.0 4.8 0.00 0.00 0.00 69 1018.3
20260509194505 13 198 1.6 6.4 0.00 0.00 0.00 67 1018.2
20260509193506 13 129 1.6 8.0 0.00 0.00 0.00 67 1018.1
20260509192506 14 123 3.2 12.9 0.00 0.00 0.00 66 1017.9
20260509191506 13 144 1.6 8.0 0.00 0.00 0.00 69 1017.9
20260509190513 13 81 0.0 4.8 0.00 0.00 0.00 71 1017.7
20260509185513 13 80 1.6 4.8 0.00 0.00 0.00 71 1017.7
20260509184506 13 80 3.2 8.0 0.00 0.00 0.00 71 1017.6
20260509183513 13 74 1.6 11.3 0.00 0.00 0.00 70 1017.6
20260509182953 14 77 4.8 12.9 0.00 0.00 0.00 70 1017.6
20260509181507 14 98 4.8 14.5 0.00 0.00 0.00 70 1017.5
20260509180507 14 68 6.4 16.1 0.00 0.00 0.00 69 1017.4
20260509175514 14 50 8.0 16.1 0.00 0.00 0.00 69 1017.4
20260509173511 14 24 8.0 19.3 0.00 0.00 0.00 66 1017.6
20260509172944 14 53 9.7 17.7 0.00 0.00 0.00 67 1017.6
20260509171518 14 64 9.7 17.7 0.00 0.00 0.00 66 1017.6
20260509170507 14 77 9.7 17.7 0.00 0.00 0.00 67 1017.6
20260509165506 14 62 11.3 20.9 0.00 0.00 0.00 67 1017.5
20260509164513 15 22 11.3 22.5 0.00 0.00 0.00 67 1017.4
20260509163953 15 89 9.7 22.5 0.00 0.00 0.00 67 1017.7
20260509162506 16 44 11.3 17.7 0.00 0.00 0.00 60 1017.7
20260509161513 16 355 9.7 20.9 0.00 0.00 0.00 64 1017.7
20260509160507 16 22 17.7 25.7 0.00 0.00 0.00 64 1017.9
20260509155507 15 24 12.9 20.9 0.00 0.00 0.00 64 1018.0
20260509154506 16 18 16.1 27.4 0.00 0.00 0.00 62 1018.1
20260509153949 17 36 16.1 25.7 0.00 0.00 0.00 60 1018.2
20260509152521 17 80 11.3 22.5 0.00 0.00 0.00 59 1018.2
20260509151506 17 43 9.7 19.3 0.00 0.00 0.00 58 1018.3
20260509150506 17 46 14.5 25.7 0.00 0.00 0.00 58 1018.5
20260509145506 17 50 11.3 22.5 0.00 0.00 0.00 58 1018.5
20260509144506 17 51 11.3 22.5 0.00 0.00 0.00 56 1018.6
20260509143508 17 73 8.0 22.5 0.00 0.00 0.00 59 1018.8
20260509142506 17 51 9.7 27.4 0.00 0.00 0.00 58 1018.9
20260509141506 17 38 14.5 29.0 0.00 0.00 0.00 58 1018.9
20260509140507 17 50 16.1 27.4 0.00 0.00 0.00 61 1019.0
20260509134508 16 64 16.1 29.0 0.00 0.00 0.00 62 1019.3
20260509133514 17 57 11.3 27.4 0.00 0.00 0.00 64 1019.5
20260509132507 16 24 11.3 25.7 0.00 0.00 0.00 63 1019.6
20260509131506 16 65 11.3 27.4 0.00 0.00 0.00 62 1019.8
20260509130513 16 62 11.3 25.7 0.00 0.00 0.00 64 1019.8
20260509125506 15 41 16.1 25.7 0.00 0.00 0.00 66 1019.9
20260509124527 15 12 8.0 25.7 0.00 0.00 0.00 66 1020.0
20260509123514 15 51 11.3 22.5 0.00 0.00 0.00 66 1020.0
20260509122506 15 57 12.9 22.5 0.00 0.00 0.00 64 1020.1
20260509121507 16 22 11.3 20.9 0.00 0.00 0.00 60 1020.2
20260509120514 16 51 11.3 29.0 0.00 0.00 0.00 62 1020.3
20260509115507 16 59 14.5 29.0 0.00 0.00 0.00 56 1020.4
20260509114506 15 19 12.9 22.5 0.00 0.00 0.00 62 1020.4
20260509113512 15 25 11.3 20.9 0.00 0.00 0.00 57 1020.7
20260509112506 16 65 16.1 27.4 0.00 0.00 0.00 61 1020.9
20260509111506 15 340 11.3 22.5 0.00 0.00 0.00 53 1020.9
20260509110513 16 12 9.7 17.7 0.00 0.00 0.00 53 1021.0
20260509105945 15 73 4.8 17.7 0.00 0.00 0.00 53 1021.0
20260509104505 15 86 8.0 17.7 0.00 0.00 0.00 52 1021.0
20260509103958 15 65 8.0 20.9 0.00 0.00 0.00 58 1021.2
20260509102507 15 42 9.7 17.7 0.00 0.00 0.00 57 1021.2
20260509101506 15 36 11.3 17.7 0.00 0.00 0.00 55 1021.4
20260509100513 14 76 4.8 20.9 0.00 0.00 0.00 51 1021.5
20260509095506 14 26 9.7 22.5 0.00 0.00 0.00 56 1021.5
20260509094953 13 16 8.0 17.7 0.00 0.00 0.00 56 1021.4